Tracking 26303 objects as of 1-Dec-2022
HD Live streaming from Space Station
objects crossing your sky now

STARLINK-3550

Track STARLINK-3550 now!
10-day predictions
STARLINK-3550 is classified as:


NORAD ID: 52373
Int'l Code: 2022-045AU
Perigee: 545.0 km
Apogee: 548.7 km
Inclination: 53.2 °
Period: 95.4 minutes
Semi major axis: 6917 km
RCS: Unknown
Launch date: April 29, 2022
Source: United States (US)
Launch site: AIR FORCE EASTERN TEST RANGE (AFETR)
aabbcc
Your satellite tracking list
Your tracking list is empty




NASA's NSSDC Master Catalog

Two Line Element Set (TLE):
1 52373U 22045AU  22335.50646641 -.00000154  00000-0  84736-5 0  9994
2 52373  53.2172 150.0099 0002680  52.3680 307.7555 15.08838210 35642
Source of the keplerian elements: AFSPC